Location: Avebury
(53.1487°N, 106.9774°W)
Time: 11:52:15
(UTC+00:00)

Envisat - Visible Passes

Search period start: 18 January 2022 00:00
Search period end: 28 January 2022 00:00
Orbit: 764 x 766 km, 98.2° (Epoch: 17 January)

Date Brightness Start Highest point End Pass type
(mag) Time Alt. Az. Time Alt. Az. Time Alt. Az.
18 Jan 5.9 00:37:17 10° WSW 00:40:22 16° W 00:43:26 10° NW visible
18 Jan 5.3 10:58:43 10° NE 11:02:32 21° E 11:06:20 10° SE visible
18 Jan 2.8 12:37:00 10° NNE 12:42:05 71° WNW 12:47:08 10° SSW visible
18 Jan 4.5 14:17:21 10° NNW 14:20:17 16° NW 14:23:11 10° W visible
18 Jan 5.2 23:58:36 10° SSW 00:03:02 30° W 00:07:31 10° NNW visible
19 Jan 6.0 10:24:05 10° ENE 10:25:05 11° E 10:26:06 10° E visible
19 Jan 3.4 12:00:07 10° NNE 12:05:11 62° ESE 12:10:13 10° S visible
19 Jan 3.9 13:39:41 10° N 13:43:52 26° WNW 13:48:01 10° WSW visible
20 Jan 4.6 11:23:31 10° NNE 11:28:05 32° E 11:32:38 10° SSE visible
20 Jan 3.2 13:02:25 10° N 13:07:16 46° WNW 13:12:06 10° SW visible
21 Jan 5.8 00:25:00 10° SW 00:28:37 19° W 00:32:15 10° NW visible
21 Jan 5.5 10:47:28 10° NE 10:50:47 17° E 10:54:06 10° SE visible
21 Jan 2.9 12:25:23 10° NNE 12:30:30 85° WNW 12:35:36 10° SSW visible
21 Jan 4.3 14:05:27 10° N 14:08:50 18° NW 14:12:13 10° W visible
22 Jan 3.8 11:48:34 10° NNE 11:53:33 51° E 11:58:28 10° S visible
22 Jan 3.7 13:27:56 10° N 13:32:22 31° WNW 13:36:47 10° WSW visible
23 Jan 6.1 00:52:19 10° WSW 00:54:17 12° W 00:56:16 10° WNW visible
23 Jan 4.9 11:12:06 10° NE 11:16:23 27° E 11:20:40 10° SSE visible
23 Jan 3.0 12:50:45 10° N 12:55:44 55° WNW 13:00:41 10° SW visible
24 Jan 5.6 00:12:51 10° SW 00:16:53 23° W 00:20:57 10° NW visible
24 Jan 5.8 10:36:23 10° NE 10:39:01 14° E 10:41:40 10° ESE visible
24 Jan 3.0 12:13:47 10° NNE 12:18:54 80° ESE 12:23:59 10° SSW visible
24 Jan 4.2 13:53:37 10° N 13:57:23 21° NW 14:01:09 10° WSW visible
25 Jan 4.1 11:37:03 10° NNE 11:41:54 41° E 11:46:41 10° SSE visible
25 Jan 3.5 13:16:14 10° N 13:20:53 36° WNW 13:25:29 10° SW visible
26 Jan 5.9 00:39:38 10° WSW 00:42:30 15° W 00:45:23 10° NW visible
26 Jan 5.2 11:00:43 10° NE 11:04:41 22° E 11:08:35 10° SE visible
26 Jan 2.9 12:39:06 10° N 12:44:10 67° WNW 12:49:13 10° SSW visible
26 Jan 4.6 14:19:33 10° NNW 14:22:19 15° NW 14:25:06 10° W visible
27 Jan 6.0 10:25:41 10° ENE 10:27:14 11° E 10:28:48 10° E visible
27 Jan 3.3 12:02:12 10° NNE 12:07:17 66° ESE 12:12:20 10° S visible
27 Jan 4.0 13:41:50 10° N 13:45:55 25° WNW 13:50:00 10° WSW visible
